Location: Makanda
(37.6176°N, 89.2090°W)
Time: 06:07:56
(UTC+00:00)

CZ-4B R/B - Pass Details

Date: 23 September 2019
Orbit: 496 x 648 km, 97.7° (Epoch: 15 October)

Event Time Altitude Azimuth Distance (km) Brightness Sun altitude
Rises 10:53:38 0° 4° (N) 2,595 7.4 -11.0°
Reaches altitude 10° 10:55:47 10° 358° (N) 1,703 6.4 -10.6°
Maximum altitude 10:59:14 42° 286° (WNW) 719 4.0 -9.9°
Drops below altitude 10° 11:02:42 10° 215° (SW) 1,702 5.9 -9.2°
Sets 11:04:50 0° 208° (SSW) 2,593 6.9 -8.8°
